{"data":{"norad_id":44312,"epoch":"2026-09-20T04:29:46.984704Z","epoch_age_seconds":85363,"freshness":"FRESH","line1":"1 44312U 19032C   26263.18734936  .00008514  00000+0  25895-3 0  9998","line2":"2 44312  44.9738 193.3422 0006357 150.2311 209.8936 15.34470835402428","mean_motion":15.34470835,"eccentricity":0.0006357,"inclination_deg":44.9738,"raan_deg":193.3422,"arg_perigee_deg":150.2311,"mean_anomaly_deg":209.8936,"bstar":0.00025895,"rev_number":40242,"period_min":93.843425834809,"perigee_km":458.14412345066,"apogee_km":466.84130006619,"semimajor_km":6840.6297117584,"source":"CELESTRAK","updated_at":"2026-09-20T09:00:14.457777Z"}}